星链-36195(STARLINK-36195)

导读

STARLINK-36195是美国SpaceX星链项目的一颗卫星,于2025年12月15日发射。作为星链星座组网的组成部分,它旨在为全球提供高速低延迟互联网服务,尤其覆盖偏远地区等网络基础设施匮乏区域,推动全球互联,进一步扩充星链星座规模,助力SpaceX实现全球卫星互联网组网目标。

基本信息
目录编号:
67124
目录名称:
STARLINK-36195
国际标识:
2025-299Y
轨道中心:
EARTH
卫星名称:
星链-36195
卫星全名:
星链-36195(STARLINK-36195)
卫星状态:
在轨 (已飞行263 天)
发射日期:
2025-12-15 UTC
国别 :
美国 (US)
星等 :
--
轨道信息
数据来源 国际轨道数据
星历时间: 2026-09-04T08:16:26+0800
15小时前
查看轨道信息
半长轴: 6861.123km
偏心率: 0.000133
轨道倾角: 43.000°
近地点辐角 283.812°
升交点赤经 241.456°
平近点角 76.258°
近地点: 482.073km
远地点: 483.899km
周期: 94.265分钟
每日圈数: 15.276012
详细信息
固有亮度:
5
最大亮度:
2.5
卫星平台:
Starlink V1.0
覆盖范围:
全球
运营商:
太空探索技术公司
运营商所在国:
美国
制造商(研发单位):
太空探索技术公司
制造商所在国:
美国
使用方式:
暂无
卫星简介
Starlink 计划是 SpaceX 推出的全球卫星互联网项目,通过发射低轨道卫星,为全球尤其是偏远地区提供高速、低延迟的互联网服务。自 2019 年起,Starlink 已部署数千颗卫星,旨在缩小全球数字鸿沟,推动互联网普及。该项目还为军事、航空等行业提供通信支持,带来广泛经济效益。
2D轨道图
3D轨道图
轨道高度分析图
轨道倾角分析图
轨道综合分析图
查看轨道综合分析图
交会数据列表
事件ID 空间交会对象 最接近时刻(TCA) 交会距离 交会风险概率(CRP) 交会风险指数(CRI) 操作
CDM_260828-002706-332706-712421
2026-08-28T
00:27:44+0000
0.471 km
远距离
1.860241E-4 高风险 0.8
CDM_260906-061105-714806-712421
2026-09-06T
06:11:16+0000
0.483 km
远距离
1.508501E-4 高风险 0.79
CDM_260906-173605-690206-712421
2026-09-06T
17:36:53+0000
0.769 km
远距离
4.158209E-5 中风险 0.67
CDM_260906-191105-690206-712421
2026-09-06T
19:11:02+0000
1.059 km
极远距离
1.418399E-5 中风险 0.58
CDM_260906-074505-714806-712421
2026-09-06T
07:45:25+0000
1.300 km
极远距离
6.916784E-6 低风险 0.52
CDM_260828-020106-332706-712421
2026-08-28T
02:01:53+0000
1.533 km
极远距离
4.770459E-6 低风险 0.49
CDM_260831-001906-220706-712421
2026-08-31T
00:19:56+0000
2.120 km
极远距离
1.684131E-6 低风险 0.4
CDM_260906-043705-714806-712421
2026-09-06T
04:37:07+0000
2.111 km
极远距离
1.672184E-6 低风险 0.39
CDM_260827-225306-332706-712421
2026-08-27T
22:53:35+0000
2.283 km
极远距离
1.648216E-6 低风险 0.39
CDM_260906-160205-690206-712421
2026-09-06T
16:02:44+0000
2.550 km
极远距离
1.167215E-6 低风险 0.36